Lafayette, LA

10:24 AM CDT on March 26, 2017 (GMT -0500)
Lafayette Regional

Weather History for KLFT - March, 2011

Change the Weather History Date:

Monday, March 21, 2011

  Actual Average Record
Temperature  
Mean Temperature 74 °F 63 °F  
Max Temperature 82 °F 74 °F 88 °F (1907)
Min Temperature 65 °F 53 °F 31 °F (1965)
Degree Days  
Heating Degree Days 0 4  
Month to date heating degree days 61 117  
Since 1 July heating degree days 1511 1347  
Cooling Degree Days 9 2  
Month to date cooling degree days 50 36  
Year to date cooling degree days 107 68  
Growing Degree Days 22 (Base 50)    
Moisture  
Dew Point 62 °F    
Average Humidity 71    
Maximum Humidity 93    
Minimum Humidity 49    
Precipitation  
Precipitation 0.00 in 0.11 in 3.62 in (1949)
Month to date precipitation 2.05 2.62  
Year to date precipitation 8.29 12.74  
Snow  
Snow 0.00 in 0.00 in 0.00 in ()
Month to date snowfall 0.0 0.0  
Since 1 July snowfall 0.0 T  
Snow Depth 0.00 in    
Sea Level Pressure  
Sea Level Pressure 30.23 in    
Wind  
Wind Speed 7 mph (South)    
Max Wind Speed 21 mph    
Max Gust Speed 29 mph    
Visibility 7 miles    
Events Fog    
T = Trace of Precipitation, MM = Missing Value Source: NWS Daily Summary

Daily Weather History Graph

Daily Weather History Graph

Search for Another Location

Airport or City:

Trip Planner

Search our weather history database for the weather conditions in past years. The results will help you decide how hot, cold, wet, or windy it might be!

Date:

Astronomy

Mar. 21, 2011 Rise Set
Actual Time 7:10 AM CDT 7:19 PM CDT
Civil Twilight 6:46 AM CDT 7:43 PM CDT
Nautical Twilight 6:19 AM CDT 8:11 PM CDT
Astronomical Twilight 5:50 AM CDT 8:39 PM CDT
Moon 9:56 PM CDT (3/21) 8:08 AM CDT (3/21)
Length of Visible Light 12h 56m
Length of Day
12h 09m
Waning Gibbous, 94% of the Moon is Illuminated
Mar 21
Waning Gibbous
Mar 26
Last Quarter
Apr 3
New
Apr 11
First Quarter
Apr 17
Full

Hourly Weather History & Observations

Time (CDT) Temp. Heat Index Dew Point Humidity Pressure Visibility Wind Dir Wind Speed Gust Speed Precip Events Conditions
12:53 AM 66.9 °F - 59.0 °F 76% 30.24 in 10.0 mi Calm Calm - N/A   Clear
1:53 AM 66.0 °F - 61.0 °F 84% 30.24 in 10.0 mi Calm Calm - N/A   Clear
2:53 AM 64.9 °F - 62.1 °F 90% 30.23 in 10.0 mi Calm Calm - N/A   Mostly Cloudy
3:53 AM 66.0 °F - 63.0 °F 90% 30.22 in 8.0 mi Calm Calm - N/A   Overcast
4:53 AM 66.0 °F - 63.0 °F 90% 30.22 in 6.0 mi SE 3.5 mph - N/A   Partly Cloudy
5:53 AM 64.9 °F - 62.1 °F 90% 30.23 in 5.0 mi ESE 4.6 mph - N/A   Clear
6:51 AM 64.4 °F - 62.6 °F 94% 30.24 in 3.0 mi Calm Calm - N/A   Partly Cloudy
6:53 AM 64.9 °F - 62.1 °F 90% 30.24 in 3.0 mi Calm Calm - N/A   Scattered Clouds
7:02 AM 64.4 °F - 62.6 °F 94% 30.24 in 2.5 mi Calm Calm - N/A   Mostly Cloudy
7:15 AM 64.4 °F - 62.6 °F 94% 30.25 in 1.0 mi SE 4.6 mph - N/A   Overcast
7:22 AM 64.4 °F - 62.6 °F 94% 30.25 in 0.5 mi Calm Calm - N/A Fog Fog
7:38 AM 64.4 °F - 62.6 °F 94% 30.25 in 1.8 mi SSE 3.5 mph - N/A   Scattered Clouds
7:45 AM 64.4 °F - 62.6 °F 94% 30.25 in 2.0 mi Calm Calm - N/A   Scattered Clouds
7:53 AM 64.9 °F - 63.0 °F 93% 30.25 in 1.8 mi Calm Calm - N/A   Mostly Cloudy
8:12 AM 66.2 °F - 62.6 °F 88% 30.25 in 2.0 mi Calm Calm - N/A   Mostly Cloudy
8:19 AM 66.2 °F - 62.6 °F 88% 30.26 in 3.0 mi Calm Calm - N/A   Scattered Clouds
8:53 AM 69.1 °F - 64.0 °F 84% 30.26 in 7.0 mi South 5.8 mph - N/A   Clear
9:53 AM 73.0 °F - 64.0 °F 73% 30.27 in 10.0 mi South 9.2 mph - N/A   Clear
10:53 AM 78.1 °F - 60.1 °F 54% 30.28 in 9.0 mi South 12.7 mph 19.6 mph N/A   Scattered Clouds
11:53 AM 79.0 °F - 60.1 °F 52% 30.28 in 10.0 mi South 15.0 mph 23.0 mph N/A   Scattered Clouds
12:53 PM 81.0 °F 81.6 °F 60.1 °F 49% 30.27 in 10.0 mi South 9.2 mph 20.7 mph N/A   Partly Cloudy
1:53 PM 80.1 °F 80.9 °F 60.1 °F 50% 30.25 in 10.0 mi South 16.1 mph 20.7 mph N/A   Mostly Cloudy
2:53 PM 80.1 °F 80.7 °F 59.0 °F 48% 30.22 in 10.0 mi South 15.0 mph 25.3 mph N/A   Partly Cloudy
3:53 PM 81.0 °F 81.6 °F 60.1 °F 49% 30.20 in 10.0 mi South 16.1 mph 23.0 mph N/A   Partly Cloudy
4:53 PM 80.1 °F 81.1 °F 61.0 °F 52% 30.19 in 10.0 mi South 11.5 mph 21.9 mph N/A   Mostly Cloudy
5:53 PM 79.0 °F - 61.0 °F 54% 30.18 in 10.0 mi South 13.8 mph 21.9 mph N/A   Overcast
7:53 PM 73.0 °F - 62.1 °F 68% 30.17 in 10.0 mi South 5.8 mph - N/A   Clear
8:53 PM 71.1 °F - 63.0 °F 75% 30.17 in 10.0 mi South 5.8 mph - N/A   Clear
9:53 PM 69.1 °F - 64.0 °F 84% 30.18 in 10.0 mi SSE 3.5 mph - N/A   Clear
10:53 PM 66.9 °F - 63.0 °F 87% 30.18 in 8.0 mi Calm Calm - N/A   Clear
11:53 PM 66.0 °F - 63.0 °F 90% 30.17 in 5.0 mi South 3.5 mph - N/A   Clear